GFSSE_500_rhum_225.txt.gz
RH
33 34 27 30 34 30 26 28 28 23 14 20 18 16 15 14 13 13 9 8 12 15 14 12 9 8 7 7 7 6 8 10 12 13 14 15 15 8 5 4 3 5 8
27 33 26 26 33 38 39 34 34 29 24 15 20 19 16 15 14 14 13 10 8 12 15 17 17 15 12 9 8 8 10 12 12 12 14 15 8 5 4 4 3 3 6
22 25 26 28 34 40 38 36 35 38 32 25 16 18 21 18 16 15 14 14 12 9 11 13 16 18 18 17 14 13 14 14 12 9 14 13 6 5 4 4 3 3 3
21 23 23 28 29 34 38 42 36 65 86 59 25 20 18 21 21 18 16 16 14 13 11 13 14 16 17 18 18 19 18 16 11 10 15 8 5 5 4 4 5 4 3
17 17 20 25 28 32 40 35 26 42 77 67 60 25 21 17 20 22 20 19 16 13 13 12 14 17 17 17 17 17 16 15 9 10 10 6 5 4 4 4 6 6 6
21 23 22 27 29 31 33 35 32 25 15 22 27 20 19 17 17 17 22 23 22 17 13 14 13 14 15 16 14 12 12 12 8 9 8 5 4 4 4 4 5 6 7
27 29 26 28 30 31 31 32 32 31 24 24 33 16 16 17 17 15 13 18 27 28 21 14 14 15 13 15 14 12 11 12 8 7 7 6 5 4 4 4 4 5 6
31 33 31 30 33 34 37 32 32 28 21 22 20 18 20 15 16 16 13 13 14 20 29 28 17 14 14 14 14 12 11 10 8 7 6 6 6 5 4 4 4 5 5
40 37 31 30 30 28 28 32 35 36 35 28 22 21 26 23 17 14 14 15 17 17 19 28 31 22 14 15 14 14 13 11 9 8 7 6 5 5 4 4 5 5 5
40 35 31 30 31 24 23 25 27 32 35 32 30 30 32 31 24 21 26 27 22 24 22 22 20 28 26 16 15 15 14 14 13 10 8 8 8 7 7 7 8 8 7
32 31 29 29 27 24 21 21 21 22 24 29 34 33 33 35 33 28 28 28 29 29 25 43 46 19 22 30 19 16 16 15 16 16 15 13 12 12 12 12 13 13 11
28 28 27 26 23 22 20 17 16 15 16 17 18 22 30 38 43 42 39 33 30 32 30 26 29 23 23 25 32 22 18 16 16 16 20 19 17 18 19 19 19 19 19
23 28 27 25 23 20 15 16 16 16 11 12 10 12 15 20 30 43 44 48 42 34 37 37 38 33 48 55 36 37 31 28 24 17 19 23 21 23 22 22 22 20 18
16 30 29 23 20 14 10 11 10 12 12 11 10 9 8 11 16 23 26 36 43 42 40 36 43 53 58 63 57 52 51 41 38 36 19 19 21 24 24 25 22 21 21
17 16 20 20 17 12 7 7 5 5 6 5 6 6 6 6 7 12 15 20 29 36 44 46 44 59 53 64 58 65 59 48 48 40 39 25 24 31 36 37 34 33 27
15 14 16 21 18 13 7 6 6 8 13 11 9 12 13 12 8 8 9 12 17 26 36 48 52 54 51 48 55 69 60 65 62 57 50 48 51 45 44 47 46 44 44
20 14 11 14 20 17 20 19 17 18 16 18 18 16 15 15 14 13 15 13 15 14 28 42 53 54 65 60 59 63 62 64 66 80 54 61 68 70 62 62 61 57 58
26 22 16 30 38 24 24 21 19 18 18 17 17 19 23 22 17 14 12 12 12 16 19 25 40 58 61 65 65 68 71 69 70 63 64 63 64 80 93 82 66 65 63
24 24 21 20 21 20 22 24 24 20 20 21 22 22 28 27 30 31 32 29 27 32 22 20 25 29 36 48 52 56 67 79 79 67 64 58 68 74 93 97 88 70 66
25 25 23 21 19 18 19 20 21 23 24 26 27 28 28 30 33 36 43 36 45 55 52 48 47 48 38 31 34 41 48 52 65 64 60 63 53 61 74 96 93 91 89
24 24 22 22 22 23 25 31 35 36 38 37 36 36 35 33 30 26 24 18 15 25 34 46 37 40 44 45 44 40 41 39 39 38 44 51 65 72 67 67 92 95 95
24 24 26 28 32 35 37 38 38 40 43 44 42 40 38 37 35 34 33 29 21 16 14 18 18 20 30 45 54 51 39 31 26 30 32 28 22 31 41 51 63 75 94
33 36 36 37 40 42 43 44 44 46 47 46 45 45 43 41 40 39 36 32 26 22 20 20 20 20 20 22 22 24 36 31 28 29 38 42 41 40 44 41 43 54 74
40 39 39 44 50 50 46 43 43 43 44 44 44 45 45 40 38 35 34 32 30 30 30 30 27 25 24 26 25 26 24 28 23 37 42 51 45 44 55 52 48 50 60
40 39 38 43 47 46 46 45 44 43 44 46 51 52 51 49 45 45 58 59 61 72 71 72 57 42 32 28 21 43 32 26 27 38 34 26 28 39 45 33 48 80 85
40 40 41 47 46 45 43 44 44 44 49 54 57 58 58 59 62 66 67 63 60 61 60 52 44 40 33 35 37 36 43 32 34 28 40 21 17 15 21 28 30 36 40

GFSSE_500_rhum_231.txt.gz
RH
39 32 28 23 20 22 23 27 30 32 27 22 15 21 18 16 15 14 15 15 16 13 8 11 14 14 12 10 9 8 7 7 11 11 10 10 14 12 8 5 4 8 15
43 33 20 18 19 24 28 31 32 35 30 26 23 17 22 21 18 16 15 15 16 16 14 12 10 11 14 17 17 14 11 11 14 12 10 9 13 10 5 4 3 6 10
21 18 23 20 20 25 28 33 37 31 27 56 32 22 17 18 21 21 19 18 17 17 17 16 14 11 12 12 15 17 17 17 16 13 10 10 13 6 5 4 4 3 6
17 23 23 27 24 27 30 33 36 35 35 23 33 39 31 18 17 16 16 18 20 20 20 19 15 14 12 13 14 17 16 16 15 13 9 10 12 5 5 5 5 4 3
18 26 28 32 26 31 31 31 34 34 35 28 30 28 31 21 15 17 18 16 14 16 20 25 23 16 15 13 12 14 14 13 12 12 8 12 10 5 5 5 5 6 6
22 31 34 33 29 32 32 33 34 34 32 28 26 24 25 25 24 23 18 20 18 15 15 17 25 29 24 16 14 14 14 12 12 12 8 10 8 5 5 4 5 5 6
23 32 36 34 31 31 29 31 34 34 33 28 24 24 22 20 25 28 25 26 23 20 19 15 17 24 29 29 21 15 15 12 10 11 8 7 7 5 5 4 4 5 5
27 31 36 34 28 23 26 28 28 33 34 35 36 33 27 25 25 31 34 32 33 32 31 30 20 15 18 24 27 26 17 15 12 10 8 7 7 7 6 6 5 4 4
30 32 37 33 22 21 23 22 22 23 23 24 25 25 26 24 27 28 30 32 34 35 34 34 33 25 30 30 21 19 28 21 17 13 10 8 8 6 6 5 5 4 4
38 37 37 35 22 22 20 18 16 15 16 18 17 17 18 20 22 22 23 28 28 28 31 33 35 34 32 33 30 20 16 30 26 18 15 12 10 8 7 6 6 5 5
34 34 35 34 28 23 22 18 14 13 15 15 15 13 14 14 15 17 17 18 22 26 30 31 30 30 32 34 35 28 39 22 31 39 23 18 17 14 11 9 9 9 10
31 27 31 36 30 24 22 19 14 14 10 10 12 12 10 9 9 9 12 12 13 18 25 30 35 31 26 28 32 36 44 46 36 28 36 36 28 23 19 17 15 14 14
29 26 27 32 32 28 20 15 8 8 7 7 7 8 8 8 8 7 8 8 8 7 8 12 21 26 25 26 24 25 29 41 47 42 44 48 46 36 39 32 22 22 21
28 27 30 33 30 34 24 19 15 8 11 8 11 12 13 16 12 12 14 15 16 14 14 12 11 12 16 20 29 32 26 28 38 50 48 51 52 54 42 43 39 25 25
31 32 37 35 33 32 27 24 24 22 20 18 20 21 24 24 22 21 22 22 21 20 20 18 16 15 16 17 20 25 27 29 30 36 53 50 51 52 53 49 56 47 31
34 34 41 37 36 37 31 32 34 33 31 31 31 30 28 27 27 28 26 26 26 27 29 32 29 23 18 17 15 18 20 22 25 31 38 40 48 58 57 59 53 63 65
30 28 30 35 36 37 40 34 37 50 38 27 27 27 27 28 27 28 29 29 30 32 33 37 44 50 48 42 39 29 31 25 25 29 33 43 40 46 59 61 67 66 66
32 29 28 28 28 39 45 42 35 24 26 26 27 29 31 32 34 35 35 34 38 38 37 47 54 63 64 63 62 50 45 45 33 32 32 42 54 47 56 63 66 74 81
37 32 26 24 24 23 23 23 26 28 28 28 30 33 35 36 33 32 32 37 43 43 48 48 47 57 61 66 66 63 60 64 62 48 48 54 59 59 58 74 72 75 79
39 34 31 26 24 26 25 27 29 27 28 31 34 35 32 31 32 33 34 36 36 38 40 42 44 43 46 48 51 50 42 46 58 59 58 55 57 59 60 65 84 87 92
38 39 34 35 35 34 33 34 35 34 33 33 31 28 28 30 31 34 38 41 40 42 44 47 46 41 41 44 43 44 43 42 43 38 31 38 54 59 58 55 70 79 91
38 32 35 38 40 41 44 46 42 38 34 30 30 32 34 34 35 36 36 36 34 30 28 27 28 28 35 50 52 51 42 45 46 44 41 42 38 37 50 60 55 65 73
36 33 35 40 42 44 46 42 36 32 32 34 36 38 37 42 41 36 37 35 30 23 20 22 25 28 26 42 54 49 41 36 36 34 39 43 44 39 35 36 47 68 79
42 43 46 46 46 43 38 35 34 34 36 40 43 46 46 32 32 33 30 26 27 26 25 26 28 26 28 25 26 35 43 38 31 24 26 28 50 64 63 52 43 40 77
46 47 46 45 43 42 40 37 41 44 42 39 36 39 33 33 26 21 20 20 18 15 14 19 27 36 41 52 65 69 69 67 66 58 39 30 51 69 73 72 66 61 52
55 48 46 48 48 48 46 45 43 42 43 43 36 30 25 23 23 23 20 16 16 16 18 21 26 34 55 74 86 77 61 59 58 54 59 75 66 74 78 75 75 64 48

GFSSE_500_rhum_234.txt.gz
RH
47 46 35 21 19 24 27 31 32 31 25 25 21 15 21 20 18 17 16 16 16 15 15 13 11 11 13 14 15 15 12 10 10 13 12 12 13 14 8 5 4 10 16
31 24 20 20 23 26 28 30 36 32 25 26 30 24 16 19 22 20 22 20 19 18 17 15 14 14 13 14 14 15 16 16 15 15 12 12 15 11 5 4 4 6 10
34 20 17 25 28 29 30 31 36 34 32 20 24 28 25 18 16 15 16 17 19 22 23 21 16 15 15 14 15 15 15 15 15 16 13 10 15 8 5 4 4 3 7
20 15 21 32 31 31 32 31 35 32 31 28 30 29 24 22 16 16 16 16 14 13 15 20 26 22 15 16 15 14 14 14 14 12 12 10 14 8 5 5 5 5 4
24 16 29 33 32 31 32 33 34 34 33 31 29 28 24 24 28 24 18 16 15 14 13 13 16 28 30 19 16 16 15 14 13 12 11 8 13 8 5 5 5 6 6
22 20 32 31 30 30 30 32 35 35 34 32 26 26 24 22 28 31 31 29 28 27 27 24 17 16 23 31 27 18 16 15 12 12 12 8 8 7 5 5 5 5 5
18 23 29 27 28 26 27 26 26 31 33 36 36 33 27 26 25 27 28 31 33 32 32 33 33 18 16 20 27 29 25 18 15 12 11 8 8 6 6 5 5 4 4
23 28 29 28 25 26 27 23 20 24 25 26 27 26 27 26 26 27 28 28 30 31 30 32 34 30 26 28 27 20 22 28 23 17 13 9 8 7 7 7 6 5 4
32 32 34 32 26 27 25 20 17 17 17 17 23 26 26 25 24 23 22 25 27 30 32 31 32 34 31 34 35 30 18 17 25 25 18 16 12 9 8 6 6 5 5
39 40 37 37 28 28 26 23 18 14 14 16 19 19 17 16 16 16 15 17 18 17 19 25 23 24 27 33 34 38 31 37 23 20 25 21 18 18 16 12 8 7 5
38 34 31 31 32 30 28 23 20 16 14 13 14 15 14 12 11 10 10 9 10 12 12 11 15 16 16 17 21 31 40 43 47 40 20 21 26 23 20 19 18 15 11
38 31 29 27 25 24 29 24 18 12 11 10 10 9 9 10 10 8 8 8 9 11 10 9 9 10 12 12 16 22 26 34 39 41 47 31 27 29 26 28 31 26 20
37 30 30 29 28 24 21 17 15 11 8 8 7 10 11 11 11 11 11 14 16 18 17 16 16 14 12 13 15 14 20 26 28 33 38 46 41 41 42 39 34 32 36
33 30 32 32 27 28 29 26 24 21 15 13 18 18 15 16 24 23 21 21 22 22 22 22 25 24 22 17 15 16 16 18 25 30 36 46 58 54 46 44 47 45 41
34 35 32 30 29 26 36 35 28 25 26 26 26 27 28 26 24 24 24 24 25 26 26 26 28 29 36 34 27 23 22 23 20 22 32 39 45 59 64 56 52 54 53
36 43 41 33 29 28 30 38 36 33 32 32 32 28 26 25 25 25 27 30 30 30 29 29 31 31 32 35 43 45 43 38 37 29 26 31 38 48 54 58 64 63 66
39 35 34 34 31 29 31 37 42 48 44 52 32 26 26 25 27 31 34 33 32 30 31 36 34 36 41 50 55 63 61 57 57 54 44 41 35 38 48 57 61 63 65
33 33 34 32 32 31 34 47 47 34 36 27 28 28 28 31 36 36 35 33 33 30 31 31 36 38 36 37 40 42 45 52 58 57 62 57 55 55 44 49 56 60 63
34 35 33 32 30 31 27 31 31 27 25 26 29 32 35 35 34 35 34 36 37 39 39 39 40 37 36 35 30 34 41 46 46 44 43 51 48 46 56 61 58 59 63
37 39 34 32 30 30 29 30 30 30 32 34 37 38 34 34 35 33 33 35 39 42 41 37 34 35 32 30 23 21 25 36 45 49 50 49 47 44 44 54 50 53 68
47 41 36 32 32 33 35 36 34 38 43 45 42 38 36 34 36 40 41 41 41 40 36 32 28 27 23 19 13 13 13 14 20 29 37 44 49 51 47 43 41 40 54
53 48 41 40 42 41 40 38 44 48 46 44 41 39 36 36 37 37 37 35 30 25 22 19 16 15 14 14 13 11 10 13 14 16 20 25 34 37 44 49 49 43 39
57 48 48 47 50 52 52 54 54 52 45 41 40 38 40 42 39 38 39 34 26 22 18 16 14 14 13 16 17 14 14 14 13 14 17 15 14 17 24 33 44 55 53
59 45 45 54 55 57 57 56 53 45 41 42 42 42 43 41 39 37 31 27 26 20 17 18 20 22 23 19 18 21 24 22 16 15 15 16 19 26 27 34 37 48 60
51 51 54 60 59 59 58 52 46 45 44 44 46 44 42 36 34 31 28 24 22 24 26 26 25 25 22 22 22 21 24 26 27 25 14 14 14 19 27 28 41 51 61
54 54 57 61 61 56 53 49 45 48 52 52 53 49 42 38 34 30 30 32 32 32 31 29 28 29 28 26 21 17 20 16 17 17 16 14 14 15 19 43 46 60 62

GFSSE_500_rhum_237.txt.gz
RH
39 30 22 19 29 29 30 31 31 26 23 28 27 17 21 22 22 21 20 20 19 18 17 16 15 14 14 14 13 13 14 16 14 13 13 10 11 14 7 5 4 9 14
28 29 22 19 33 30 30 30 34 31 24 22 30 24 16 14 15 16 19 20 21 22 23 21 16 16 16 15 14 15 16 16 16 16 13 10 12 13 6 4 4 5 10
30 24 17 24 32 28 28 31 35 32 29 30 30 24 17 15 13 14 15 15 14 14 17 24 26 20 16 16 15 14 14 14 15 13 12 10 11 11 6 4 4 4 5
28 27 17 32 32 26 27 32 34 32 32 30 30 26 23 25 25 21 16 16 15 14 14 14 20 29 27 22 17 16 15 14 13 12 12 10 10 12 6 4 4 4 4
31 22 20 32 28 24 27 27 34 32 30 30 27 27 24 24 30 28 25 24 22 24 27 22 15 18 27 31 28 21 16 15 13 11 11 11 9 11 6 5 4 4 4
33 21 23 30 24 23 25 20 26 31 31 33 32 29 26 24 24 25 26 28 30 31 32 33 28 16 17 22 27 27 26 21 16 14 10 10 8 8 6 5 4 4 4
28 17 26 29 24 24 24 20 20 20 23 25 22 27 27 24 23 24 23 24 24 26 26 29 34 27 22 20 20 19 16 18 22 18 15 11 8 7 6 6 6 5 4
30 19 29 30 26 27 25 21 18 15 15 16 19 22 21 22 20 20 20 17 16 17 17 17 20 25 29 29 32 31 28 19 16 21 20 16 12 8 8 7 6 6 6
39 32 32 33 30 31 29 24 18 15 12 13 16 16 16 14 15 15 14 13 14 15 15 15 15 14 20 30 32 33 31 25 23 21 18 22 18 16 13 10 9 8 7
43 39 40 33 27 29 31 28 22 18 15 15 15 16 16 15 13 11 9 8 7 7 7 8 10 12 12 16 23 25 30 32 31 32 28 19 22 23 18 18 17 15 12
47 42 36 32 26 22 23 25 25 18 13 12 13 12 11 10 9 8 6 6 7 10 13 13 11 10 11 13 13 18 23 27 28 30 30 30 39 23 32 29 22 21 20
51 46 36 31 30 23 21 19 14 10 11 12 11 10 8 10 9 8 7 9 12 16 18 18 18 20 20 17 14 14 14 20 27 26 26 30 32 40 35 36 42 41 35
56 46 40 31 30 30 25 24 24 21 16 13 11 10 12 10 10 9 16 18 18 20 20 20 21 22 23 26 27 20 15 15 15 23 26 28 30 34 37 45 48 49 52
43 38 35 32 32 32 29 28 32 32 26 17 15 18 18 12 12 16 20 21 22 22 24 25 25 24 24 26 28 35 35 26 20 19 18 20 25 31 36 37 42 53 54
37 36 32 32 31 28 28 32 37 36 30 26 24 24 20 22 23 24 23 22 23 26 27 28 26 27 27 27 29 31 32 38 46 48 37 27 24 25 26 34 43 41 46
39 34 31 32 30 29 31 29 31 33 31 30 27 26 38 28 26 24 24 24 27 29 27 25 27 29 31 31 31 32 38 41 48 57 64 77 79 81 66 42 36 40 46
38 35 40 42 38 34 33 31 27 31 38 45 42 49 39 29 29 28 27 28 30 27 26 27 31 34 36 32 30 30 32 33 32 29 29 37 47 56 61 68 62 56 56
39 39 42 42 39 33 32 33 31 37 46 38 36 31 28 30 29 29 33 35 32 30 30 31 30 28 26 26 26 26 27 27 29 35 33 31 25 29 35 41 51 60 58
35 33 33 43 40 42 33 35 35 37 33 32 30 29 29 30 35 40 40 39 36 35 33 33 31 31 29 26 26 25 23 26 30 30 29 32 29 32 37 45 45 44 44
38 34 31 40 42 43 45 46 41 33 32 31 32 30 32 37 39 37 36 36 35 32 32 33 32 28 25 20 18 18 18 18 18 19 20 21 20 18 19 22 35 43 48
41 36 35 36 42 35 39 36 32 34 34 33 33 34 42 46 43 41 39 40 38 37 38 34 31 24 21 20 18 16 17 18 18 16 16 16 17 24 27 25 21 23 31
53 46 38 40 38 38 41 41 39 40 40 41 45 48 49 47 44 40 37 37 32 27 26 25 24 23 22 22 19 19 18 19 20 21 20 21 21 23 23 20 19 20 21
59 61 50 44 42 47 45 48 49 47 47 48 49 52 48 42 40 36 32 28 28 29 28 27 26 24 24 25 27 26 25 25 24 25 28 30 27 25 23 19 16 16 18
65 70 68 54 51 53 51 47 47 52 54 52 54 46 41 41 42 42 43 43 40 38 36 33 30 28 28 30 30 34 40 44 42 39 42 40 35 21 18 16 15 14 14
69 70 69 60 54 56 54 52 58 60 59 52 45 44 44 48 48 46 42 42 40 40 39 39 40 41 43 43 41 41 43 43 49 44 45 36 30 26 23 21 16 10 10
75 67 65 61 56 57 60 63 63 58 51 47 44 46 52 49 48 45 43 44 44 44 47 46 46 47 45 46 50 49 48 49 47 34 31 27 21 15 12 9 7 5 5

GFSSE_500_rhum_243.txt.gz
RH
23 29 18 23 32 30 29 33 23 22 21 22 16 18 21 19 20 20 18 18 18 19 19 19 18 17 16 15 14 13 12 12 12 12 11 10 8 8 10 7 5 5 10
26 28 23 24 32 29 23 32 28 28 25 21 19 16 14 13 13 14 14 13 12 13 15 20 22 19 18 17 16 16 14 12 11 11 11 10 8 8 9 6 4 3 3
29 28 21 27 32 28 21 31 28 30 30 27 22 18 15 14 17 17 16 14 13 14 13 12 15 22 25 24 21 19 18 15 12 10 10 10 8 7 8 6 4 3 3
31 30 20 27 31 28 23 25 29 30 27 28 24 24 28 27 24 19 18 18 24 27 26 21 14 14 15 17 21 24 22 20 18 13 11 10 8 7 8 6 5 4 3
34 29 21 24 30 24 23 21 30 28 28 28 28 25 24 27 29 26 26 26 25 22 21 22 18 16 15 14 15 17 17 19 20 19 16 11 9 8 7 6 5 4 4
37 33 21 22 30 25 18 18 20 29 29 28 25 23 22 20 18 17 16 15 16 15 17 16 17 17 20 22 21 20 19 22 21 18 17 17 14 9 8 7 6 5 5
38 35 27 22 30 26 18 18 18 20 23 25 22 22 20 16 13 12 12 12 12 12 12 13 13 14 15 16 19 23 25 25 24 22 22 16 16 16 14 10 7 7 7
41 36 32 24 30 27 21 18 17 18 18 20 19 17 14 13 12 12 12 12 12 12 12 12 13 14 13 13 14 15 18 19 21 23 25 24 18 18 18 17 15 14 12
43 38 36 36 33 30 26 20 17 14 16 16 15 13 11 9 10 10 10 9 8 9 9 9 10 11 12 14 15 15 15 16 18 20 22 25 26 26 28 28 26 20 18
46 39 36 36 32 32 29 24 22 17 14 15 14 12 12 10 9 9 7 7 6 9 9 12 13 13 14 11 11 13 14 16 16 18 20 22 24 25 26 27 27 31 29
48 46 36 36 32 27 27 27 24 23 18 13 11 9 9 9 8 7 6 5 6 8 12 16 17 17 18 19 21 22 22 19 16 16 16 17 20 21 23 25 28 29 29
52 50 39 33 33 29 23 24 24 23 22 15 11 9 9 9 8 6 5 5 6 11 15 17 18 19 21 21 22 22 24 25 27 29 28 26 22 21 21 21 22 23 25
49 49 35 30 31 27 20 19 21 20 19 18 15 11 9 8 6 5 5 5 7 11 18 19 20 21 22 24 23 22 23 24 24 26 28 28 29 32 36 34 32 29 27
43 45 45 28 32 29 22 18 19 20 21 22 25 21 11 7 7 7 11 12 16 21 20 21 21 22 24 27 29 33 28 26 27 27 24 28 30 31 33 32 32 37 39
42 42 47 36 30 29 25 23 21 20 21 22 27 27 26 20 12 17 18 22 22 22 22 22 22 23 33 43 40 28 24 22 22 24 25 26 27 24 24 26 26 24 22
42 43 44 42 30 29 26 25 24 21 20 22 25 29 29 32 33 37 33 35 24 24 28 23 33 34 41 33 28 26 26 25 23 23 25 23 24 27 24 20 19 18 18
42 44 48 41 32 28 27 27 24 23 23 22 21 24 28 46 48 41 51 42 29 24 24 25 26 30 30 28 28 28 25 24 24 25 24 25 22 20 20 21 20 17 16
43 45 47 46 40 31 27 28 30 28 26 25 24 25 44 41 44 46 43 35 24 25 26 27 32 36 35 31 28 26 27 29 26 25 25 24 24 24 24 23 23 24 24
43 45 46 43 39 35 31 30 30 34 34 34 31 26 26 38 45 37 31 27 26 27 28 33 39 38 33 29 27 24 26 28 30 32 32 30 30 31 32 33 34 36 38
42 42 43 45 42 41 36 32 33 37 43 41 40 29 26 27 28 28 28 28 29 32 37 41 38 32 29 29 32 34 36 36 34 36 42 45 46 44 44 44 44 44 43
44 41 41 48 46 43 38 36 35 32 42 43 43 45 41 35 30 31 34 34 35 41 44 44 37 33 32 36 37 36 34 38 37 36 31 36 44 46 46 42 42 41 39
48 44 42 46 44 47 44 50 42 44 48 49 40 39 36 33 34 35 37 41 42 45 48 40 38 40 39 37 35 34 37 42 40 39 34 36 33 38 38 40 39 38 33
56 49 48 43 40 46 48 46 48 49 55 57 50 43 38 37 36 38 43 47 49 48 42 42 41 42 44 42 38 37 38 42 42 43 40 42 40 37 38 38 35 30 27
60 56 51 41 42 45 47 44 44 50 51 50 61 56 49 43 40 44 46 51 48 45 47 42 42 44 42 42 45 48 48 46 39 38 38 37 35 31 34 28 24 24 24
58 52 48 46 46 46 51 50 54 51 55 54 56 55 57 48 47 48 49 48 46 46 45 47 44 44 46 47 50 50 49 48 47 38 33 34 35 33 29 29 28 26 25
60 52 48 49 52 53 59 62 66 61 60 62 56 63 60 52 47 48 52 54 51 48 47 50 49 52 56 56 54 56 52 48 43 40 36 37 31 32 34 34 30 20 12

GFSSE_500_rhum_246.txt.gz
RH
26 27 23 26 32 27 23 32 21 20 20 17 15 19 18 18 21 21 17 15 16 18 19 19 18 18 16 16 15 15 13 12 11 10 10 9 6 7 8 7 5 4 4
27 27 23 27 32 27 20 31 24 28 18 17 14 14 16 14 12 14 13 14 12 11 12 14 17 20 21 21 19 18 16 14 12 10 10 9 7 7 8 6 4 3 3
29 32 24 27 31 27 21 26 24 30 29 24 17 14 12 12 17 19 16 14 19 20 17 13 12 15 18 22 24 22 21 19 16 13 10 9 7 6 6 6 5 4 3
35 31 25 24 30 26 20 18 25 26 27 29 24 26 28 27 23 20 19 20 19 17 20 17 14 14 14 14 16 18 19 20 20 18 15 12 10 8 6 6 5 4 4
39 34 27 22 28 24 17 16 22 24 22 27 27 24 23 26 23 18 14 12 11 13 12 13 15 18 19 18 16 15 15 20 21 19 17 16 15 13 10 7 6 5 5
40 32 32 24 27 26 17 16 15 22 24 27 24 22 20 17 14 13 12 11 11 11 11 12 12 12 15 19 21 23 25 26 24 22 21 15 15 16 16 14 13 11 10
44 34 30 27 26 28 20 15 14 14 19 20 18 15 13 12 12 12 11 11 10 10 11 12 12 12 12 12 15 18 18 18 19 21 23 23 18 18 19 19 17 16 15
48 39 32 28 26 28 24 17 14 13 13 14 14 11 10 10 11 11 11 11 12 12 12 12 12 12 13 13 14 14 15 15 16 17 19 17 19 19 20 22 23 24 22
49 45 36 33 32 31 31 20 17 14 12 12 12 12 10 10 10 11 11 11 10 10 10 10 11 11 12 13 14 15 15 16 17 17 18 20 21 21 20 21 21 21 22
43 48 44 35 35 27 26 24 18 16 12 11 9 10 10 8 8 8 8 8 7 7 9 10 14 15 15 15 15 18 20 20 20 19 20 21 21 21 21 20 20 20 21
45 46 48 43 32 33 25 20 19 17 14 11 10 9 9 8 9 8 7 6 5 6 8 11 14 16 17 17 18 20 20 20 20 20 22 22 25 26 26 25 24 23 23
38 43 42 41 29 28 26 19 18 18 18 15 12 9 8 8 8 8 7 6 5 5 5 8 15 17 18 20 21 20 20 20 20 19 20 19 20 23 24 24 25 27 30
34 35 38 36 25 24 24 18 19 17 19 20 17 11 9 6 7 7 6 6 4 4 5 9 15 18 19 19 23 26 26 27 28 23 22 23 22 22 22 23 22 23 22
36 34 34 37 33 22 24 20 17 16 18 18 19 18 15 9 6 6 6 6 6 7 13 19 18 18 18 19 19 36 34 28 22 22 21 24 23 21 21 19 18 17 16
38 35 35 34 38 21 22 24 20 16 16 17 18 20 20 18 19 16 12 7 10 20 25 22 20 19 20 32 36 29 25 26 26 26 26 26 26 24 23 22 21 20 19
41 38 37 37 37 32 19 23 22 21 19 15 17 20 20 23 29 41 46 42 52 62 65 33 33 24 23 26 29 30 28 27 24 22 20 21 22 24 25 24 23 23 24
41 39 39 39 39 39 26 20 21 22 24 18 18 19 19 19 27 60 78 65 58 50 41 26 22 24 26 30 33 34 31 27 23 22 27 28 33 31 29 31 32 32 33
46 42 41 38 41 44 41 24 20 22 21 23 22 25 25 26 30 58 41 38 42 36 30 24 24 25 28 33 36 32 29 28 29 30 30 30 29 28 30 31 29 34 42
49 46 41 38 40 44 45 42 25 23 21 22 24 30 38 35 41 50 37 41 40 27 26 26 27 29 37 37 34 30 32 34 35 34 33 35 37 36 36 38 34 29 29
48 48 47 43 39 41 43 47 38 27 26 26 27 35 43 43 40 36 36 29 26 27 28 30 34 39 41 38 34 36 39 41 36 35 36 42 46 47 45 41 40 37 38
45 50 45 54 43 38 41 51 43 32 29 32 32 37 50 49 42 39 35 29 25 28 33 39 43 42 37 39 40 39 41 39 38 41 42 44 42 44 50 42 38 38 39
45 49 44 55 52 41 44 55 48 39 45 48 42 44 46 45 45 39 35 32 32 35 38 43 44 43 40 37 38 39 42 48 48 49 46 46 44 43 43 42 40 38 36
45 47 43 56 58 46 44 49 49 47 55 54 50 46 54 55 50 49 41 38 34 35 44 46 49 45 43 42 40 42 45 45 44 53 55 55 55 50 44 41 42 37 32
44 47 42 47 57 59 49 44 47 49 49 51 55 53 54 54 62 58 53 49 46 48 51 52 52 47 46 46 48 55 50 47 41 33 47 56 48 48 46 41 31 25 25
43 43 48 46 55 66 61 43 49 50 52 58 58 56 56 57 64 55 60 53 50 53 53 52 52 53 50 51 55 56 54 49 49 46 40 40 40 44 42 37 33 29 28
48 47 48 46 52 70 61 47 50 55 58 61 63 63 58 60 62 57 60 56 52 54 56 58 61 56 56 59 62 60 55 54 52 46 41 41 41 43 45 41 35 39 39